Theta_e
315 314 315 315 318 322 323 324 320 322 322 315 317 318 320 323 322 321 323 324 326 333 335 334 336 336 338 339 340 339 340 342 340 335 337 343 343 344 345 343 344 343 343 344 344 339 339 340 338 338 340 341 340 338 336 337 337 335 334 332 334 335 337 339 340 341 341 342 341 340 340 340 339 339 338 336 333 332 334 336 337 338 338 337 337 336 336 335 334 335 335 335 334 334 333 332 332
318 317 317 317 320 322 321 324 318 317 317 313 317 318 321 323 322 322 324 325 327 334 336 336 337 337 337 337 337 337 341 342 340 339 340 343 344 344 344 344 345 343 343 343 342 340 338 337 338 340 339 340 341 341 339 337 337 335 334 334 335 337 339 340 341 340 341 341 341 340 340 340 339 339 339 337 335 334 334 335 336 336 337 338 337 336 335 335 334 334 335 335 335 335 333 333 333
317 317 319 319 320 322 322 323 317 312 313 312 315 319 322 321 321 323 327 329 333 336 337 336 336 338 337 336 337 338 342 340 338 338 339 343 343 343 344 345 345 344 343 342 342 341 340 337 337 340 339 339 340 341 339 338 337 336 335 336 337 339 340 341 341 341 342 341 340 341 339 339 339 338 338 337 335 335 335 335 336 335 334 337 337 335 335 335 335 334 335 336 335 334 333 332 333
316 318 319 320 320 321 321 321 318 313 312 311 312 320 322 320 322 325 330 333 336 336 337 337 337 338 337 339 339 338 342 340 339 339 340 343 343 343 344 344 343 343 342 342 342 341 340 338 336 339 340 340 341 340 340 339 337 336 337 338 339 340 340 341 341 341 341 340 340 340 338 338 338 337 337 336 335 335 334 335 336 335 334 336 337 336 335 335 335 335 336 337 335 334 333 333 333
316 319 319 319 320 321 321 320 320 314 312 313 313 319 322 320 323 328 332 336 335 337 337 337 337 338 337 340 340 340 341 341 342 341 341 343 343 344 344 344 342 343 342 342 342 340 340 338 336 340 340 340 340 339 339 339 338 338 338 339 340 340 340 340 341 340 339 339 339 339 338 337 337 337 337 336 336 336 334 333 334 336 336 336 337 335 335 335 336 336 337 337 336 335 333 333 333
317 319 320 319 320 320 320 317 316 314 317 318 317 319 323 322 326 330 334 335 335 337 337 337 336 337 339 340 340 341 341 342 342 342 342 342 343 343 343 342 342 342 341 340 339 339 338 336 339 340 340 341 340 339 339 340 341 340 339 340 340 340 339 339 340 339 338 339 339 338 338 338 338 338 337 336 335 334 332 331 333 337 338 337 336 335 335 335 336 336 336 336 334 333 332 332 333
318 319 319 319 319 320 317 313 313 314 318 321 320 321 324 327 329 330 332 334 335 337 336 338 336 335 340 340 340 341 341 342 342 341 342 341 342 342 341 341 341 341 340 339 337 338 336 335 341 341 340 342 341 340 340 340 341 342 341 340 339 340 339 339 339 339 338 338 339 338 338 338 338 337 336 335 335 333 328 329 334 337 337 336 336 336 336 335 336 336 335 333 331 330 330 330 330
318 319 320 319 319 319 316 314 315 316 319 320 322 326 330 331 331 330 330 331 335 337 336 337 335 336 341 338 341 341 341 341 341 340 341 341 341 340 341 340 340 340 339 338 337 336 334 335 340 341 342 342 339 341 341 340 341 341 342 341 340 341 340 338 337 338 338 338 339 338 338 338 337 336 335 335 335 334 329 326 332 336 336 336 336 336 336 336 335 334 331 329 329 329 329 329 328
318 319 319 318 318 317 315 314 316 318 319 321 324 332 336 334 333 331 329 331 335 337 337 338 334 337 341 339 340 341 341 341 340 339 340 340 340 340 340 339 339 339 338 337 337 336 333 335 339 341 341 338 339 341 342 341 340 340 341 341 339 340 339 337 336 338 338 337 338 338 337 337 337 335 333 334 335 336 333 326 327 333 337 336 336 336 336 335 333 330 328 329 329 330 330 329 329
318 319 318 318 316 314 312 313 315 317 320 324 327 334 338 334 334 332 330 334 336 337 338 337 334 336 339 339 341 339 340 339 339 338 339 340 339 339 339 339 339 339 338 337 337 336 334 336 340 341 340 337 339 341 341 340 339 339 339 340 339 339 339 338 337 337 337 337 337 337 337 337 336 333 333 334 334 335 335 331 324 326 332 335 336 336 335 333 330 328 328 329 329 330 329 329 329
318 317 318 316 314 311 310 312 315 317 321 324 329 336 337 335 335 334 334 336 336 337 337 336 335 337 338 339 341 339 339 339 338 337 337 339 339 339 339 338 338 338 338 337 337 337 336 338 339 341 340 338 340 341 340 339 339 338 337 338 339 338 337 337 336 336 336 337 336 337 337 337 334 332 332 333 334 334 334 335 330 323 324 330 334 334 334 331 329 327 327 328 328 328 328 327 328
318 318 318 314 313 312 313 313 314 318 323 322 330 338 336 335 337 335 335 336 336 336 337 337 337 337 337 340 340 339 339 337 336 336 337 338 338 339 338 338 338 337 338 338 337 337 337 338 339 341 341 340 340 341 340 340 339 339 338 338 338 337 336 336 336 336 336 336 336 336 336 336 334 333 331 331 333 334 334 334 334 328 323 324 329 333 332 329 328 327 326 327 328 328 328 328 328
317 319 317 314 315 316 315 314 315 318 322 326 333 337 336 336 337 334 335 335 335 337 338 338 336 337 340 340 340 339 337 336 335 336 337 337 337 338 337 338 338 337 337 337 336 336 336 337 339 339 341 340 340 341 340 339 339 339 339 339 338 338 338 337 337 336 337 338 337 336 336 335 335 334 332 330 330 332 333 333 334 332 328 323 323 328 329 327 327 327 327 326 328 329 328 329 329
317 318 318 315 316 317 315 313 316 317 322 333 336 336 337 337 338 335 335 336 338 338 338 337 335 337 339 340 341 338 336 335 334 335 336 336 337 338 338 338 338 337 337 336 335 334 335 337 340 338 339 340 340 339 338 339 338 338 338 339 338 338 338 337 337 337 338 338 337 337 337 336 336 336 335 333 331 330 331 332 332 333 332 329 325 323 324 326 327 326 327 326 327 328 328 329 329
317 318 317 317 316 315 315 315 316 318 326 336 337 337 338 337 337 336 336 338 339 336 336 337 335 337 339 340 341 337 334 334 334 335 337 337 338 338 338 338 337 337 335 335 334 334 336 339 340 339 338 339 339 338 337 338 339 337 338 338 338 338 338 338 338 338 338 338 337 337 337 336 336 336 336 335 334 332 331 331 332 332 333 333 331 327 323 322 325 326 326 326 326 326 327 328 329
317 317 318 317 314 312 314 317 319 323 329 336 337 337 338 337 336 337 337 337 337 335 336 336 335 337 339 339 338 336 333 334 335 335 336 337 337 337 337 337 336 337 336 335 336 337 338 338 339 338 338 339 339 339 338 338 338 339 338 338 337 338 339 338 339 338 337 336 336 337 337 338 337 337 337 337 336 335 334 333 332 333 333 332 333 333 328 324 322 324 326 326 326 326 326 327 329
316 317 317 315 313 312 314 319 324 326 330 334 337 336 336 338 336 336 336 335 337 335 335 336 336 337 337 337 337 335 334 334 334 334 336 335 336 337 336 336 336 337 337 337 338 338 338 337 336 336 336 336 338 339 340 338 338 340 339 338 338 337 337 337 338 338 337 335 335 337 339 341 340 340 340 339 338 337 335 334 334 334 333 333 333 333 333 330 324 322 324 325 326 325 326 326 328
316 316 316 313 314 315 317 323 324 325 329 333 336 335 335 337 336 335 335 335 336 335 336 336 337 336 336 336 336 334 334 333 332 332 334 333 334 334 334 335 336 337 338 338 337 336 336 337 335 335 335 335 335 336 339 339 340 341 339 339 340 340 339 338 339 339 338 337 337 339 340 341 341 342 342 341 340 338 336 335 335 336 334 334 333 333 333 334 331 324 322 324 326 325 327 330 331
316 317 315 314 316 318 320 323 320 322 327 332 335 335 335 336 336 335 336 337 335 335 337 337 337 336 335 335 336 334 333 333 331 332 333 332 332 332 332 333 334 336 338 338 337 337 336 336 335 336 337 335 332 332 335 339 340 340 339 339 340 341 341 339 338 338 338 338 338 339 339 339 340 340 339 339 339 339 337 334 334 335 335 334 333 333 331 332 332 328 324 324 325 325 329 333 333
316 317 315 315 317 318 319 318 319 322 325 331 334 335 335 335 334 334 335 337 336 335 336 338 338 336 334 334 335 334 332 332 332 333 333 332 332 332 331 332 335 337 338 338 338 338 337 336 336 338 338 336 335 333 334 337 339 340 340 340 340 341 341 340 340 338 338 337 337 337 338 338 338 337 335 335 337 338 338 335 334 334 335 334 333 334 334 331 330 330 328 324 326 329 332 333 332
316 316 316 316 316 317 319 318 320 324 326 331 334 334 335 334 333 333 334 335 335 334 334 337 338 336 334 333 335 334 332 333 334 334 333 332 332 332 333 335 337 338 337 338 337 338 338 337 337 338 338 336 336 336 336 337 339 340 340 340 341 340 341 341 340 339 338 337 337 337 337 337 337 337 336 336 337 338 339 338 337 337 338 336 335 336 336 333 331 333 332 329 332 334 335 334 333
315 316 316 316 315 318 322 321 325 328 329 332 333 334 335 333 333 333 334 335 335 334 334 336 336 336 335 333 334 334 332 333 334 334 333 333 332 333 334 336 338 337 337 337 337 337 338 337 337 337 337 336 336 337 337 337 338 340 340 340 341 340 340 341 340 340 339 338 338 337 337 337 338 338 337 337 336 337 338 339 338 338 339 338 337 338 338 334 333 335 335 334 335 335 335 335 334
316 315 316 317 317 323 325 326 329 330 330 331 333 334 333 333 333 333 333 334 334 333 333 335 335 336 335 334 334 333 332 332 333 333 333 332 332 334 334 335 337 337 337 337 337 337 337 337 335 335 337 337 338 337 337 338 337 339 339 339 340 340 340 340 341 341 340 339 339 339 338 338 339 338 338 338 337 337 337 337 337 337 338 339 339 340 339 337 335 334 335 336 335 334 335 335 335
314 314 317 321 323 327 327 329 332 332 332 333 333 333 333 333 334 333 332 332 332 333 334 334 335 336 335 335 334 333 333 333 334 333 332 331 333 333 333 336 337 337 337 336 337 337 337 337 335 335 338 337 338 337 337 337 337 338 338 339 340 340 340 340 341 341 341 340 339 339 339 339 339 338 338 338 337 338 338 338 338 338 337 339 339 339 340 340 338 335 333 334 335 335 335 336 336
314 314 319 324 325 328 329 331 333 333 333 332 332 333 334 333 332 333 334 333 332 333 334 334 334 335 334 333 333 333 334 335 334 334 333 333 335 333 333 337 337 337 337 336 336 336 335 335 335 336 337 337 337 337 337 337 338 339 339 339 339 339 340 340 340 340 341 340 339 338 339 338 338 338 338 338 337 337 337 338 338 339 338 338 337 338 339 339 340 338 336 334 335 335 335 336 336
315 319 321 325 327 330 331 333 334 333 332 331 333 334 333 332 332 334 334 334 332 332 332 332 333 333 333 332 332 334 335 336 335 334 335 335 336 335 336 337 337 336 336 334 333 333 334 333 333 334 334 336 335 336 336 337 338 338 339 339 339 340 340 339 339 339 339 340 339 338 338 338 338 338 338 338 338 338 337 337 338 338 338 338 337 338 338 338 339 339 339 337 337 337 336 336 336
320 323 325 328 330 332 332 334 333 332 332 332 332 334 333 331 332 334 334 334 332 332 332 332 332 332 332 332 332 334 335 336 335 334 335 335 336 336 337 337 336 335 334 331 329 330 331 330 329 329 330 331 332 333 334 335 335 336 336 337 337 338 338 337 336 337 337 337 338 338 338 338 338 339 338 338 338 338 338 337 337 337 337 338 338 338 337 337 338 338 338 338 339 339 338 338 336
325 325 328 330 330 332 332 334 333 331 332 331 331 333 332 331 332 334 333 333 332 333 334 333 332 332 332 331 331 333 334 335 334 335 335 334 335 336 337 336 335 335 333 329 326 327 326 325 325 326 326 327 327 328 328 330 332 332 333 333 334 335 335 334 333 334 334 335 335 336 337 336 337 337 338 337 338 338 338 337 338 338 337 337 337 338 337 337 337 337 337 337 338 339 338 339 338
325 324 328 331 331 333 334 333 332 331 331 330 330 329 330 332 333 333 332 331 332 333 333 333 332 333 332 332 331 332 333 334 333 334 335 335 335 336 336 336 334 333 331 328 326 324 323 322 323 323 323 323 323 323 326 329 329 329 330 330 331 331 331 331 331 332 332 333 333 333 335 335 335 336 336 336 337 337 337 338 337 337 337 337 337 338 337 337 337 337 337 337 337 337 337 338 338
326 323 326 329 330 332 334 333 330 331 330 329 329 323 325 335 333 331 332 331 333 333 333 333 333 332 333 333 331 331 333 334 334 334 335 335 335 336 335 335 333 332 330 328 327 325 323 322 322 321 321 320 321 321 325 327 328 328 327 328 328 329 329 329 329 330 330 331 331 331 332 334 334 335 335 335 336 336 336 336 336 337 337 338 337 338 337 336 336 336 336 337 335 336 336 336 338
325 324 326 326 324 328 333 332 329 330 328 329 328 320 324 335 333 331 332 331 333 333 333 333 333 332 333 333 331 330 332 334 334 335 335 335 334 334 334 333 333 331 331 329 327 325 323 323 322 322 321 320 321 322 324 325 325 325 325 325 325 325 326 326 326 326 327 327 328 330 330 331 332 333 334 335 335 335 335 335 335 335 337 337 336 337 337 336 336 336 336 336 335 335 335 334 335
324 323 324 324 322 326 332 330 329 329 327 328 326 318 323 334 333 331 332 332 333 332 333 333 333 332 333 333 331 330 331 333 334 334 334 333 333 332 333 333 332 331 331 329 327 325 324 323 323 323 322 321 320 320 320 319 319 320 321 321 320 321 322 322 322 323 323 324 325 327 328 329 330 331 332 333 334 333 333 333 334 335 336 336 336 337 337 336 336 336 336 336 335 334 334 332 333
322 322 321 322 323 324 328 329 329 329 327 326 324 319 323 332 333 331 331 331 331 332 333 333 333 332 332 332 331 330 330 331 332 333 332 331 331 331 331 331 330 329 329 327 326 325 324 324 323 323 322 322 321 318 316 315 316 318 320 319 318 320 321 321 321 322 322 322 323 325 326 327 328 329 330 332 333 333 331 331 332 334 335 335 336 336 336 336 336 336 336 337 336 335 333 332 332
317 320 321 322 321 321 324 326 328 328 327 325 324 322 324 331 333 331 331 331 329 330 331 332 332 331 330 331 330 330 330 330 332 333 332 331 331 330 330 329 328 328 328 327 326 325 325 324 322 322 321 320 318 315 314 313 313 317 320 320 320 322 323 323 324 324 324 324 325 325 325 326 327 328 329 330 331 332 331 331 331 333 334 334 335 335 335 336 336 336 336 336 337 336 334 333 334
315 317 319 318 318 319 321 323 325 327 326 325 323 321 325 330 332 331 331 330 329 330 330 331 331 331 331 330 330 331 330 331 332 332 331 330 330 329 328 328 328 328 328 327 326 325 325 324 322 321 320 318 317 316 316 316 316 318 322 323 323 324 325 325 325 326 326 326 327 327 327 327 327 327 328 329 330 330 331 331 331 332 332 333 333 333 333 334 335 336 336 335 335 335 335 334 334
316 317 318 317 317 319 321 323 325 326 325 323 321 320 322 326 328 331 330 330 331 330 330 331 331 330 331 330 330 330 330 331 332 330 329 329 327 325 325 327 328 327 327 326 325 325 324 324 322 321 321 321 321 320 320 320 320 321 323 324 325 326 326 326 326 326 327 327 327 327 327 327 327 327 327 328 329 330 330 330 331 331 331 331 331 331 331 332 333 335 335 334 334 334 334 334 335
317 317 317 316 316 317 321 324 324 325 324 322 322 322 322 324 326 329 330 330 332 331 330 331 331 331 330 330 330 330 330 331 331 329 328 328 326 325 325 326 327 327 326 326 325 325 324 323 322 322 322 323 322 321 320 320 319 320 321 323 324 325 325 326 327 326 326 326 326 326 326 326 327 327 327 327 328 329 329 330 330 331 330 329 330 330 329 330 331 332 333 333 333 332 332 332 334
317 316 315 315 315 317 321 323 323 324 323 321 321 321 320 323 325 327 329 330 332 331 330 330 331 330 330 330 331 331 331 330 329 329 328 327 327 327 327 326 326 326 325 324 325 324 323 323 322 323 322 322 322 321 321 320 320 320 321 321 323 325 324 325 326 325 325 325 326 326 326 326 326 326 326 326 327 329 329 330 331 331 331 330 330 329 329 330 330 331 332 332 332 331 332 332 332
316 315 314 313 315 318 319 321 323 323 320 319 320 319 319 324 325 326 327 327 329 330 329 329 330 330 330 330 331 333 332 329 327 328 328 327 327 327 327 326 325 325 324 324 323 322 322 322 322 322 322 323 322 322 321 320 320 322 322 323 324 325 325 325 324 324 324 326 326 326 326 326 327 326 326 326 326 328 329 330 330 331 331 331 330 328 328 328 329 330 331 331 331 331 330 330 331
315 315 313 312 315 316 315 318 322 322 320 321 321 319 319 323 323 324 325 325 326 328 328 329 329 329 330 330 331 333 332 330 329 329 329 329 328 327 327 327 325 325 324 323 322 322 321 321 321 321 322 322 322 321 320 321 322 323 324 325 325 325 325 325 324 324 324 325 325 326 326 326 326 326 326 326 326 327 328 329 329 330 330 330 329 327 327 327 328 329 330 331 330 329 328 328 330
315 314 313 312 314 314 313 317 322 322 321 322 321 317 317 320 321 321 323 324 326 328 328 329 328 329 331 331 330 331 331 331 330 330 330 330 329 328 327 326 325 324 324 323 322 321 321 321 321 320 321 321 321 321 321 321 322 323 324 325 326 326 325 324 324 324 323 324 325 325 326 326 326 326 327 326 326 326 327 327 328 328 329 328 328 327 327 327 328 329 329 330 330 330 329 328 329
313 315 315 314 315 315 315 318 319 317 317 319 318 315 316 318 319 319 321 323 327 329 329 328 328 330 331 331 330 330 331 331 331 331 330 331 329 328 327 326 326 325 324 324 322 321 321 320 320 320 320 321 321 322 322 322 322 323 324 325 325 325 324 323 323 323 324 324 325 325 325 326 326 327 328 328 328 328 327 327 327 327 327 327 327 327 327 327 328 328 329 330 330 331 331 329 329
312 314 315 315 315 315 315 317 316 313 315 321 319 316 315 315 317 319 319 321 324 328 329 327 327 329 329 329 329 329 329 328 330 331 331 332 330 329 328 326 325 325 324 323 322 321 321 321 321 320 320 319 320 321 321 321 322 323 324 324 325 325 323 322 323 324 324 324 325 325 325 326 327 327 328 328 328 328 328 327 327 327 326 327 327 327 327 327 327 328 328 329 329 330 331 330 329
312 315 315 315 315 315 315 316 315 313 316 320 320 316 314 313 316 319 320 320 323 325 326 326 326 328 328 328 329 329 328 327 329 330 330 331 331 329 328 326 326 325 323 322 322 321 321 321 320 320 319 319 320 321 321 321 322 323 324 324 324 323 322 322 322 323 324 324 324 324 325 326 327 326 326 326 327 328 328 328 328 327 327 327 327 326 327 327 327 327 328 328 329 329 329 329 328
314 315 315 315 315 315 315 315 314 314 314 314 317 317 314 312 316 321 321 319 320 322 323 325 324 326 327 327 329 328 327 327 328 329 329 331 331 330 328 327 326 325 323 322 321 321 321 320 320 319 319 319 320 320 321 321 321 322 324 324 323 321 321 322 322 323 323 324 324 324 325 325 326 326 326 325 325 326 327 327 327 327 328 328 327 326 327 327 327 327 327 328 328 328 329 328 328
315 315 315 315 315 315 316 315 313 314 313 312 315 317 314 312 313 318 320 318 318 321 322 323 323 323 325 325 326 327 327 327 327 328 331 332 332 330 329 327 326 325 323 322 322 321 321 320 320 319 318 318 319 320 320 320 321 322 322 323 322 321 321 322 323 323 323 323 323 324 324 325 325 325 325 324 324 325 326 325 325 326 327 327 327 327 328 328 328 328 327 328 328 328 329 329 328
315 315 315 315 315 315 316 315 313 313 313 312 314 315 314 313 312 314 319 319 319 320 322 323 323 323 324 324 324 325 326 328 326 327 331 332 332 331 329 327 326 325 324 322 322 321 320 320 320 318 317 318 318 319 320 320 321 322 322 322 321 321 321 322 322 323 323 323 323 323 323 324 324 324 324 323 324 324 325 325 324 324 325 326 327 327 327 327 328 328 328 328 328 329 329 329 329
315 316 315 313 313 314 313 314 313 312 312 313 314 315 314 312 312 314 318 319 319 319 320 322 323 322 324 324 324 323 324 326 326 327 329 332 332 330 329 328 327 326 323 322 321 321 320 321 319 317 317 318 318 319 319 319 320 321 321 321 320 320 320 321 322 323 323 323 322 322 323 323 323 323 323 323 323 323 323 323 323 323 324 325 326 326 326 327 327 327 327 327 328 328 328 328 328
315 314 313 312 312 312 312 312 313 312 312 314 314 314 314 313 313 316 318 318 319 319 319 320 322 323 323 324 323 323 324 325 326 328 329 331 332 331 329 329 327 326 324 322 322 321 321 320 318 316 317 318 318 318 318 318 320 320 320 321 320 319 320 320 321 322 322 322 322 322 322 322 322 322 322 322 322 321 321 321 321 322 322 323 324 325 326 326 326 326 326 326 327 327 326 326 326
315 313 311 311 311 312 312 312 312 312 313 315 316 315 313 312 315 318 319 319 319 320 320 321 322 324 324 324 324 324 326 328 329 330 330 331 332 331 330 329 328 326 324 323 322 320 321 320 317 316 317 318 318 318 318 318 319 320 320 320 319 319 319 320 321 322 322 322 322 322 321 321 321 321 321 320 319 319 319 319 319 320 321 322 323 325 325 325 326 325 325 324 324 324 324 324 324
315 315 313 312 312 312 312 312 311 312 313 315 317 316 313 313 317 319 318 319 319 319 320 321 322 323 324 325 324 326 328 330 331 330 330 331 332 331 330 330 329 327 325 323 321 320 321 320 318 317 317 317 318 317 318 318 319 319 318 318 318 318 318 319 321 321 321 321 321 321 321 320 320 320 319 318 317 317 318 318 318 319 321 321 323 325 325 324 324 323 322 322 322 321 321 321 321
316 316 313 312 313 313 313 315 317 315 314 314 315 315 314 315 318 318 318 318 318 319 321 321 322 322 324 325 326 328 329 332 331 330 330 331 332 331 331 331 329 327 325 323 322 321 320 319 318 317 317 317 317 317 317 318 318 317 316 317 318 318 319 320 321 321 321 321 320 320 319 318 317 317 317 315 315 316 316 317 318 319 320 321 323 324 324 323 322 321 320 320 319 318 318 318 318
316 314 312 314 316 315 313 316 319 317 315 314 314 314 314 315 317 317 317 318 318 320 320 321 322 324 325 327 328 327 328 329 330 331 331 332 333 331 331 331 329 327 325 323 322 321 320 319 318 317 316 316 316 316 317 318 318 317 316 317 318 318 319 320 321 320 320 319 319 318 317 316 315 314 314 314 314 315 315 317 319 319 320 321 322 323 323 321 320 319 318 318 318 318 318 317 317
315 313 313 316 317 316 314 315 316 316 315 315 313 313 312 312 314 317 317 318 319 319 319 320 323 325 326 328 329 328 328 328 329 329 331 332 333 331 331 331 329 327 325 323 322 321 319 318 318 316 316 316 317 317 318 317 317 316 316 317 318 318 320 320 320 320 319 317 316 315 315 314 313 313 312 313 314 315 316 317 318 319 320 321 321 321 320 319 319 319 318 318 318 318 318 317 316
314 314 316 315 314 314 314 315 315 315 315 314 312 313 312 310 311 315 317 318 320 319 319 319 321 322 323 325 327 329 329 330 329 329 329 331 332 331 331 330 328 326 324 323 322 320 319 319 318 317 317 317 317 317 318 317 317 316 315 316 317 318 320 320 319 318 317 315 315 314 314 313 313 312 312 312 314 315 316 317 318 319 320 320 320 319 319 319 318 317 317 317 317 317 316 315 314
315 316 317 316 315 314 314 315 315 314 315 314 313 312 311 311 314 315 317 319 320 320 320 320 321 321 321 322 326 328 330 330 330 328 328 330 332 330 331 329 328 325 322 321 320 318 318 319 319 318 317 317 317 317 318 318 317 316 315 316 317 318 319 319 318 316 315 314 314 314 314 313 312 311 311 312 314 315 316 316 318 318 318 319 319 318 317 317 316 316 316 316 315 315 314 313 312
315 315 315 316 317 315 315 314 313 313 313 313 314 313 310 313 317 317 318 320 320 320 320 321 320 322 323 326 328 329 330 331 330 328 327 329 331 330 330 329 327 325 321 319 319 317 318 319 318 319 317 316 317 318 318 318 317 316 315 316 317 318 318 318 316 315 314 314 314 313 313 313 312 311 310 312 314 315 315 315 316 317 317 317 316 316 316 316 316 316 316 315 313 313 312 312 311
316 315 315 316 316 315 315 315 313 313 312 312 313 313 312 314 318 318 318 320 320 319 320 320 320 322 325 329 331 331 330 331 331 328 328 329 330 329 329 328 327 325 321 319 318 317 318 318 318 318 317 316 317 318 318 318 317 316 316 316 317 318 317 316 315 314 314 314 313 313 313 312 312 311 310 312 314 314 314 314 315 316 315 314 314 315 316 316 316 315 313 312 311 311 311 310 310
Wind_Speed
6 8 8 8 6 7 7 5 6 4 5 6 5 5 3 2 4 6 2 2 2 2 3 2 1 2 3 3 3 9 13 10 6 3 3 4 4 6 7 10 11 12 12 9 10 14 11 11 11 11 13 13 14 17 19 20 19 19 19 19 18 17 16 15 15 16 16 16 16 14 14 13 13 15 15 13 12 13 13 14 13 13 13 13 13 13 14 14 15 15 15 15 16 16 15 14 13
7 8 7 6 5 7 3 2 7 6 6 7 5 5 3 5 6 4 5 6 3 3 2 1 2 4 5 3 3 7 12 13 11 8 7 7 8 8 8 10 10 11 12 10 10 12 11 12 10 9 12 12 13 14 17 19 19 19 19 18 17 16 15 15 16 17 17 16 15 13 13 14 15 15 15 13 13 14 14 14 14 13 13 13 13 13 14 14 14 14 14 14 15 15 14 13 13
7 6 5 6 6 6 3 3 8 7 7 7 5 3 2 6 4 4 5 4 3 3 1 1 2 4 4 1 5 7 7 10 11 9 7 6 7 8 9 10 10 10 11 12 9 9 10 11 10 9 11 12 13 14 15 17 19 19 18 17 16 15 15 15 17 18 17 15 14 13 14 16 16 15 15 13 12 13 13 13 13 13 13 14 14 14 14 13 13 13 12 12 13 13 13 12 12
6 4 5 6 5 6 5 5 6 6 7 6 5 4 2 3 3 3 2 4 4 2 2 1 2 4 5 4 5 6 7 7 10 8 6 6 6 8 9 9 11 10 10 11 8 9 10 10 10 10 11 12 13 14 15 17 18 19 18 17 16 15 15 15 17 18 17 15 14 13 14 15 15 16 15 13 13 13 13 13 13 13 14 15 14 13 13 13 12 12 12 12 12 11 11 11 11
5 4 4 7 5 3 4 5 5 6 7 5 4 5 2 3 4 2 2 5 2 1 2 1 1 4 4 8 5 3 5 4 11 11 7 8 8 9 9 11 13 12 11 10 10 11 9 9 10 9 11 12 13 14 15 16 17 18 18 17 16 16 15 15 16 17 17 15 14 13 14 15 15 16 14 13 13 13 13 13 13 13 14 14 14 13 12 12 11 11 11 11 10 9 9 9 9
5 5 4 6 4 2 4 5 5 7 4 3 5 1 2 4 4 1 2 3 2 1 2 1 1 3 5 7 7 7 6 2 6 10 9 9 9 9 10 13 13 12 12 12 13 14 10 7 7 9 11 11 14 15 15 14 14 16 17 16 16 15 15 15 16 16 16 15 13 13 15 16 16 15 13 13 13 13 13 13 13 13 13 13 13 12 11 11 11 11 10 9 8 8 7 7 7
5 5 5 6 3 2 8 7 7 6 1 0 6 5 4 4 4 3 3 3 3 2 0 1 1 2 4 4 7 9 10 8 7 10 12 10 8 8 9 12 12 12 12 14 15 15 14 9 5 7 9 9 11 13 13 13 12 13 15 15 14 14 15 15 16 15 15 14 14 14 15 16 16 15 13 13 13 13 13 12 14 13 12 13 12 12 11 10 10 10 8 8 7 6 6 5 5
5 5 2 5 5 4 8 8 7 5 2 1 4 4 5 6 5 6 5 4 2 2 2 3 2 2 3 3 4 8 14 16 13 14 14 11 10 8 9 11 12 12 13 15 15 15 16 10 5 5 8 10 12 11 11 12 12 12 13 14 14 13 14 16 16 15 14 14 15 15 16 16 16 14 13 13 13 13 14 13 13 13 12 12 12 11 10 10 9 8 8 7 6 5 4 4 4
5 5 2 5 7 5 7 8 6 4 2 2 3 2 4 6 6 7 8 6 2 2 2 3 2 2 5 7 7 8 12 16 17 17 14 11 11 10 10 12 14 13 13 16 15 14 15 10 5 4 9 12 13 12 11 12 12 13 13 13 13 13 14 15 15 14 13 13 14 15 15 15 15 14 13 13 13 13 14 14 13 13 13 12 12 11 10 8 7 7 8 7 5 4 4 5 5
5 4 3 5 6 6 7 7 4 3 3 3 2 2 3 5 6 7 8 6 4 3 4 2 1 2 6 8 7 6 9 14 18 16 13 12 12 12 12 13 14 12 13 14 14 13 13 10 5 5 11 13 12 13 13 13 12 13 14 12 13 14 14 14 14 13 13 13 13 15 15 14 14 14 13 13 13 13 13 14 13 13 13 12 11 10 9 7 7 8 8 6 5 5 5 7 8
5 4 3 5 6 6 6 5 4 3 3 3 2 1 3 3 3 5 7 6 5 3 4 1 2 5 7 8 5 8 14 16 17 13 12 12 12 13 13 13 14 15 14 13 13 12 11 9 6 7 11 13 12 13 15 15 13 14 14 12 12 13 13 13 13 13 12 12 12 13 14 14 13 13 13 12 12 12 12 12 13 13 12 12 11 10 9 8 7 7 7 7 6 6 7 8 8
5 4 4 6 6 5 4 4 3 2 3 5 3 2 1 2 3 5 6 5 5 5 5 2 3 3 6 7 4 11 18 17 15 12 13 13 13 14 12 14 16 17 15 13 14 12 10 10 8 8 11 14 15 14 15 16 16 15 14 13 12 13 13 12 12 12 12 12 12 12 13 13 13 12 12 12 12 12 12 12 12 12 11 10 10 10 9 9 8 7 6 7 6 7 8 9 8
5 3 6 5 4 3 2 3 2 2 4 3 2 3 0 3 3 3 4 4 5 6 6 6 3 2 5 7 5 10 14 15 15 13 15 14 12 12 12 16 18 17 15 14 15 12 11 11 7 8 12 15 16 15 16 16 16 15 14 13 13 13 13 12 11 11 12 12 12 12 13 13 12 11 10 10 11 11 11 11 11 11 11 9 8 8 9 9 8 7 6 7 7 8 9 8 7
4 2 5 4 2 3 3 4 3 4 2 4 3 3 2 1 2 2 3 5 4 4 6 8 4 1 5 6 4 7 10 14 16 15 17 15 14 14 14 16 17 17 15 15 15 13 12 10 7 9 12 13 15 15 16 16 15 15 14 13 13 14 14 12 11 11 11 11 11 12 12 12 11 10 9 9 9 9 9 9 10 10 10 9 8 6 7 8 8 7 6 6 7 7 8 8 6
3 2 5 3 3 5 5 3 3 5 3 6 3 4 4 3 2 3 2 2 6 6 4 7 8 2 3 4 4 8 12 15 17 17 17 17 17 16 16 16 17 16 14 15 15 12 10 9 8 9 12 13 14 14 14 14 14 15 14 13 13 15 14 12 11 11 11 11 11 11 11 11 10 10 9 8 8 8 8 7 8 8 8 8 8 6 5 6 7 7 6 7 7 7 7 7 6
3 3 5 4 4 5 5 3 3 4 4 5 4 4 5 6 2 3 4 3 8 7 4 8 10 6 9 9 10 14 16 14 16 18 17 18 17 15 15 15 16 15 13 15 14 11 9 8 9 10 11 13 13 13 12 13 14 14 13 13 13 14 14 12 11 11 10 10 10 11 11 10 9 9 8 7 8 7 7 6 6 6 7 7 6 6 5 4 5 7 7 7 7 7 6 6 6
2 4 5 3 5 4 5 5 2 3 5 4 5 4 3 7 4 4 5 4 9 11 10 10 11 12 13 12 15 20 19 15 15 16 17 17 15 13 13 13 14 14 12 13 12 11 10 9 10 10 12 11 11 10 10 12 12 12 11 12 12 13 12 11 10 10 9 9 10 10 9 8 8 7 6 6 6 6 6 6 5 5 5 5 5 5 4 3 3 5 7 8 7 6 5 5 5
4 5 4 4 5 3 4 4 3 3 5 6 5 4 3 5 6 5 5 7 9 10 11 11 13 14 14 15 18 21 18 16 15 12 13 13 12 12 11 11 12 12 11 11 10 10 9 10 11 10 11 10 9 9 9 10 9 9 9 9 9 9 9 10 10 9 8 8 8 8 8 7 7 6 6 5 5 5 4 5 5 4 4 4 4 4 3 3 2 3 6 8 7 6 4 4 4
5 3 4 5 3 4 4 3 4 2 1 6 5 4 4 4 5 3 3 7 7 8 9 9 13 14 14 14 17 21 17 15 16 11 13 13 13 12 11 11 11 11 11 10 9 9 9 10 11 9 9 10 10 11 10 9 7 7 7 7 7 7 7 8 8 8 8 7 7 7 7 7 6 6 5 5 5 4 2 3 4 4 4 4 4 4 3 3 3 2 4 7 7 6 4 4 4
4 3 5 4 3 4 4 2 3 4 1 5 7 5 7 6 4 1 3 7 6 5 6 6 11 12 12 12 15 21 16 14 16 14 15 15 13 11 11 11 11 11 10 10 9 8 9 9 9 8 8 8 9 11 10 8 7 6 6 6 5 5 5 6 7 7 7 7 7 6 6 5 5 5 5 5 4 3 2 1 2 2 3 3 4 4 4 4 3 3 3 5 7 7 5 4 3
3 4 4 3 2 2 4 2 3 3 1 5 7 7 8 8 6 4 2 5 6 6 5 7 11 12 12 11 13 19 15 13 15 15 16 15 13 11 10 11 10 10 9 10 9 8 7 6 7 6 8 8 7 9 8 6 6 6 6 5 4 4 4 4 5 6 6 6 6 6 5 4 4 4 4 4 3 3 3 2 2 1 2 3 3 4 4 3 4 5 4 4 5 6 5 5 3
3 4 2 5 1 0 5 3 3 2 3 6 7 6 7 7 8 8 5 4 6 6 6 10 12 12 12 11 12 17 14 11 13 15 15 15 14 12 11 11 9 9 9 10 9 8 6 5 6 6 8 8 6 7 6 5 5 5 5 4 4 3 4 4 4 5 5 5 5 4 4 4 3 3 3 3 3 3 3 3 2 2 2 2 2 3 4 4 4 5 5 4 5 5 5 5 4
4 3 0 3 3 3 5 3 3 2 5 6 5 6 7 8 9 10 10 9 8 7 8 10 11 12 12 11 12 14 13 10 11 13 15 15 13 11 11 9 8 8 8 9 9 8 7 7 7 7 8 7 5 5 4 4 4 4 4 3 3 3 4 4 4 4 4 4 4 3 3 3 3 3 3 3 2 2 2 2 2 2 2 2 2 2 2 3 4 4 5 5 5 5 5 5 5
5 3 4 2 3 4 4 4 4 4 6 6 5 6 6 7 9 9 11 10 9 9 9 9 10 12 12 11 10 12 13 12 11 12 14 14 11 11 11 9 8 8 9 9 9 8 8 10 9 7 7 6 5 4 4 4 4 4 4 4 4 4 4 4 4 4 4 3 3 3 2 3 3 2 2 2 1 1 1 1 1 2 2 2 2 3 2 3 3 4 4 5 5 5 6 5 5
4 3 5 2 4 4 4 5 6 7 7 6 7 8 8 9 10 10 10 9 9 9 10 10 9 10 10 10 9 10 12 12 12 12 13 13 11 12 11 9 8 8 10 9 9 10 11 11 10 8 7 5 5 4 5 5 5 4 4 4 4 4 4 4 4 4 3 3 3 3 2 2 2 2 2 1 0 1 1 2 2 2 2 2 2 3 3 3 3 3 4 5 6 6 6 6 6
3 4 5 4 5 6 6 6 7 7 5 4 7 9 9 9 8 9 9 8 9 8 9 10 9 9 9 9 9 10 11 12 12 12 13 12 11 11 9 9 9 9 11 10 11 14 13 11 11 10 9 8 7 6 6 5 5 5 5 5 4 4 4 4 4 4 3 3 3 3 2 2 1 1 1 0 0 1 2 2 3 3 3 3 3 4 3 3 3 4 4 5 5 5 6 6 6
7 6 6 7 7 6 6 6 6 7 6 3 5 8 9 5 1 3 7 7 8 9 8 8 8 8 8 9 9 10 11 12 12 12 13 12 10 10 9 9 9 10 11 12 14 16 13 12 12 12 12 11 10 10 9 8 7 7 6 5 5 4 4 4 4 3 3 3 3 2 2 1 1 1 0 1 1 2 2 2 3 3 4 4 4 4 4 4 5 5 5 5 5 5 5 5 6
9 9 8 7 7 7 6 6 5 4 5 4 3 6 8 5 1 3 7 6 7 8 8 7 7 7 8 9 9 9 11 11 12 12 12 11 9 9 10 10 10 11 11 12 16 16 14 13 13 12 11 11 11 11 11 10 8 8 6 6 5 5 4 4 4 4 3 3 3 2 2 1 1 1 2 2 2 3 2 2 3 3 4 4 5 5 5 5 6 6 6 6 6 6 6 6 6
9 9 8 8 8 8 6 4 4 3 3 4 1 5 6 5 4 5 5 5 6 7 7 7 6 6 7 8 8 8 9 10 10 11 11 10 9 9 9 10 10 11 11 13 15 15 14 13 12 11 11 10 10 10 10 8 7 6 5 5 5 4 4 4 4 3 3 3 3 2 2 2 2 2 3 3 3 4 4 3 3 3 3 4 4 5 5 6 6 7 7 7 7 8 8 8 7
7 6 6 8 8 6 5 4 5 5 3 4 3 4 4 5 5 6 5 6 7 6 6 6 6 5 5 6 7 8 8 9 9 9 10 9 9 8 9 9 10 11 12 12 13 12 13 12 11 11 10 9 9 9 8 7 6 5 5 4 4 4 3 3 3 3 3 2 2 2 2 2 2 3 3 4 4 5 5 5 4 4 4 4 4 5 5 6 6 7 7 7 8 9 9 9 8
5 4 5 6 5 6 4 3 6 5 4 2 4 3 4 5 6 6 5 6 6 6 6 5 5 5 5 5 6 7 8 8 9 9 9 8 8 8 8 9 9 10 11 12 12 11 11 10 10 10 9 9 8 8 7 6 6 5 5 4 4 4 3 3 3 3 3 3 3 2 2 3 3 4 4 5 5 5 6 6 6 5 5 5 5 5 5 6 6 6 7 7 8 9 10 9 9
5 4 4 3 3 7 5 3 3 3 4 2 4 1 4 5 7 7 6 6 6 5 5 5 5 5 5 5 5 6 7 9 11 10 9 8 8 8 8 9 9 10 11 11 11 11 11 9 9 10 9 8 8 8 7 7 6 6 5 4 4 4 3 3 3 3 3 3 3 3 3 3 4 4 5 5 6 6 6 6 6 6 6 6 6 6 6 6 6 6 6 7 8 9 9 9 10
4 4 4 4 4 5 6 6 4 1 3 4 3 2 2 4 8 8 7 6 6 5 5 4 4 5 5 4 4 5 6 8 10 10 10 9 8 8 8 9 9 9 10 11 11 10 10 10 9 9 8 8 8 7 7 6 6 6 5 5 4 4 3 3 3 3 2 3 3 3 4 4 4 5 5 6 7 7 7 7 6 6 6 6 7 7 7 7 7 7 7 7 7 8 9 9 9
3 2 3 6 6 5 5 6 6 4 3 2 2 3 3 5 8 9 8 7 6 5 5 5 4 4 4 3 3 5 5 7 9 11 11 10 9 8 7 9 9 9 10 10 10 9 9 9 9 9 8 7 7 7 6 7 7 6 5 4 4 3 3 3 2 2 2 2 3 3 4 4 4 5 5 6 7 7 7 7 6 6 6 6 7 7 7 7 7 7 8 7 6 7 8 8 8
3 2 3 6 7 6 5 5 6 7 5 2 3 4 4 7 7 8 8 7 5 5 4 4 4 4 4 4 4 5 6 6 8 10 10 9 9 8 5 6 8 8 9 9 9 8 8 8 8 8 7 7 6 6 5 5 5 4 3 3 3 3 2 3 3 3 3 3 4 5 5 5 5 5 5 5 6 7 8 7 7 7 6 6 6 7 7 7 7 7 8 7 7 7 8 8 8
3 4 4 4 6 5 3 4 3 6 7 5 4 4 3 4 5 6 7 7 5 5 4 4 4 5 5 5 4 5 6 6 7 9 9 9 11 11 5 3 5 8 8 9 8 8 8 8 7 7 6 5 5 4 3 3 2 3 2 2 2 2 3 3 4 4 4 5 6 6 6 6 6 6 6 6 6 6 7 7 7 7 7 7 7 7 7 7 7 7 8 7 7 8 7 7 7
3 4 4 4 4 4 6 3 1 3 7 5 3 4 3 3 3 5 6 6 6 6 6 6 5 5 5 6 6 7 7 7 8 10 9 9 11 14 10 6 5 7 7 8 8 7 7 7 7 6 5 4 4 4 4 3 3 3 3 3 2 3 3 3 4 5 6 6 7 7 7 7 7 7 6 6 6 6 7 7 8 8 7 7 7 6 7 7 7 7 7 7 7 8 8 7 6
4 4 4 4 3 2 6 3 2 2 5 3 2 6 5 4 3 4 6 8 8 7 7 7 7 6 5 6 7 7 7 8 10 11 11 10 10 13 12 9 7 7 8 8 8 8 7 7 7 6 5 5 4 4 4 4 4 3 3 3 2 3 4 4 5 6 6 6 7 7 7 7 7 7 7 6 6 6 7 7 8 8 8 7 6 6 5 6 7 7 8 8 8 8 8 7 6
4 2 1 2 3 3 5 3 2 2 4 2 2 6 4 2 3 4 7 9 7 7 7 7 7 8 7 7 7 8 8 9 10 11 12 11 11 12 11 9 8 7 8 8 8 8 8 7 6 5 5 4 4 4 4 4 4 3 3 3 3 3 4 5 5 5 6 6 6 7 7 7 6 6 7 6 6 6 7 7 7 6 5 5 5 5 5 6 6 7 8 8 8 8 8 7 5
3 1 1 1 4 4 3 4 3 3 3 3 3 6 4 2 4 6 8 9 7 7 8 7 7 7 7 7 7 8 10 10 11 12 12 13 13 13 11 10 9 8 8 8 9 8 7 7 6 6 5 4 4 4 4 4 3 3 3 3 3 3 4 4 4 5 6 6 6 7 7 7 7 6 6 6 5 6 7 7 6 6 5 5 5 6 7 7 7 8 8 8 8 8 8 6 5
2 2 2 1 4 4 0 5 5 3 4 4 5 6 5 4 6 6 7 8 8 7 8 8 8 7 7 8 8 9 11 11 11 12 12 14 14 13 12 11 11 10 9 9 9 8 8 7 7 6 5 5 5 4 4 4 3 4 3 3 3 4 4 5 5 5 6 6 6 7 7 8 8 8 7 7 6 6 7 7 7 7 7 7 7 8 9 8 8 8 8 8 8 8 8 7 6
2 2 3 0 6 6 2 5 6 4 5 5 6 6 3 5 6 6 5 7 9 8 8 9 8 8 8 9 10 11 11 11 11 12 13 14 14 13 13 12 12 11 10 9 9 8 8 8 7 6 5 5 5 4 4 4 4 5 4 4 4 4 5 6 6 6 7 7 7 8 8 8 9 10 9 9 8 8 7 7 7 7 7 8 8 8 9 8 8 8 8 8 7 7 7 8 7
2 2 1 2 6 6 3 6 6 3 0 4 6 6 2 3 6 6 5 7 9 8 9 9 7 8 9 10 11 11 12 12 11 12 13 14 15 15 14 14 13 11 11 10 9 9 8 8 7 6 5 5 4 4 4 4 4 5 5 4 4 5 5 6 5 5 6 7 7 8 8 9 10 11 10 10 9 9 8 8 7 7 7 7 7 7 8 8 8 7 7 7 7 6 7 8 8
2 3 3 5 6 6 4 6 5 3 2 2 6 6 5 3 3 4 6 9 9 9 10 9 8 9 10 11 12 12 13 14 13 12 13 15 16 16 16 15 13 12 12 11 10 9 9 8 7 6 5 5 5 4 4 4 4 4 4 4 4 4 5 5 5 5 6 6 7 8 8 9 9 10 11 10 9 9 9 8 8 8 7 6 6 6 6 6 7 7 7 7 6 6 6 7 8
4 3 4 5 5 5 4 5 5 2 3 4 5 5 6 5 2 5 5 8 8 9 9 10 10 10 11 11 11 12 14 14 13 13 14 16 17 17 16 15 13 13 12 11 11 10 9 8 7 6 6 5 5 5 4 5 5 4 4 4 4 4 4 4 4 5 6 7 7 8 9 8 8 9 10 10 10 9 9 9 9 8 8 7 7 7 6 6 6 6 6 6 6 6 5 6 7
5 4 4 4 4 6 4 5 4 3 5 5 2 5 5 5 1 3 4 5 5 5 5 7 10 11 11 11 11 12 12 13 13 13 15 17 18 17 16 15 14 13 12 12 11 10 10 9 7 6 6 5 5 5 5 5 5 4 4 5 4 4 4 4 4 5 6 7 7 8 8 8 7 8 9 9 10 10 10 10 10 9 9 8 8 8 7 7 6 6 5 5 5 5 5 5 6
4 6 5 5 4 4 4 4 4 4 5 2 1 4 5 5 2 1 1 1 3 3 0 2 6 10 11 11 12 12 11 11 12 13 15 17 17 17 17 16 16 14 13 12 11 10 10 9 8 7 6 6 5 5 5 5 5 4 4 4 4 4 4 4 5 5 6 7 7 8 8 7 7 8 8 8 9 9 9 9 10 10 9 8 8 8 7 7 6 5 4 4 4 5 5 4 5
4 5 4 4 3 3 4 4 4 5 3 2 2 3 6 5 3 1 2 1 2 4 2 1 3 7 9 10 11 12 11 11 11 12 13 16 17 17 17 17 16 15 14 13 12 11 10 9 9 8 7 7 5 5 5 4 4 4 4 4 4 4 4 4 5 5 6 6 7 8 7 7 7 7 8 9 9 9 9 9 10 9 8 8 8 8 7 6 6 6 6 6 5 5 6 6 5
5 6 4 4 4 4 4 4 4 5 1 3 1 2 4 6 5 4 5 4 3 3 4 4 2 4 6 9 10 10 10 11 11 11 12 13 15 17 18 18 17 16 15 15 13 12 11 10 9 9 9 7 6 5 5 4 4 3 3 3 4 4 4 4 4 5 6 6 7 8 8 8 7 8 9 9 9 10 10 10 10 10 8 8 8 8 7 6 6 8 8 7 6 7 7 6 7
5 5 4 4 4 4 5 4 4 4 1 4 1 2 5 5 3 2 4 4 4 3 4 4 3 4 4 6 8 8 8 9 9 10 11 11 14 17 18 18 18 17 17 16 14 13 12 11 10 10 10 9 7 6 5 4 4 3 3 3 4 4 4 4 4 5 6 6 7 8 8 8 8 8 9 9 9 10 10 10 11 10 8 7 7 8 8 8 8 8 9 9 9 8 8 7 7
3 3 5 5 4 5 5 4 5 4 3 1 3 3 4 2 2 2 3 2 3 3 3 3 3 4 4 4 6 7 8 9 9 10 12 13 16 18 18 19 18 18 18 17 15 14 13 12 11 10 11 10 8 7 6 5 4 3 3 4 4 3 3 3 3 4 6 7 7 8 8 8 8 8 8 9 10 10 9 10 10 9 7 6 6 7 7 8 9 9 11 12 12 12 11 10 9
1 2 6 4 3 4 3 2 4 5 5 3 3 3 4 3 3 4 4 5 4 3 3 3 3 5 6 5 6 7 8 9 10 10 11 13 17 19 19 19 18 18 19 18 16 16 15 14 12 10 10 10 9 8 6 5 4 4 4 4 4 3 2 2 2 3 6 7 7 7 7 7 8 8 8 9 10 10 10 9 9 8 6 5 6 7 7 7 9 11 11 12 13 13 12 11 11
1 3 4 1 2 4 4 1 1 2 6 4 2 4 4 3 2 1 2 3 1 3 2 2 3 5 6 6 6 7 7 8 8 9 9 12 16 17 18 19 19 19 20 19 18 16 15 15 13 10 10 10 9 8 7 6 5 4 4 4 4 3 2 2 3 5 6 6 6 6 6 7 8 8 8 9 10 9 10 9 8 7 5 5 6 7 7 8 9 11 11 11 11 11 9 9 10
4 3 1 2 0 3 4 4 2 4 6 3 2 6 5 3 1 2 2 1 2 3 2 2 3 5 5 5 6 6 6 7 7 8 8 10 14 16 17 18 19 20 20 20 18 16 15 16 14 11 11 11 10 9 8 6 5 4 4 3 3 3 2 2 4 5 6 5 6 6 6 7 8 8 8 9 9 9 9 9 8 7 6 6 7 7 7 7 8 9 9 9 10 9 7 7 8
4 3 1 2 4 3 3 4 4 5 6 4 4 5 4 4 2 1 1 1 2 2 1 1 3 4 5 5 6 6 6 6 6 7 7 9 12 15 16 17 18 20 20 20 19 17 16 16 14 12 11 11 10 9 8 7 5 4 4 2 2 2 2 3 5 6 5 5 6 6 7 8 8 7 7 8 7 7 7 7 6 6 6 7 8 8 7 7 9 10 9 8 9 8 7 7 7
2 2 3 3 4 4 4 4 4 5 6 6 6 5 4 3 0 2 2 2 3 4 4 3 1 2 3 3 4 5 5 5 5 6 7 8 10 13 15 16 18 19 20 19 19 18 17 17 15 12 12 11 11 10 9 8 6 5 4 2 2 2 3 4 5 6 5 6 6 6 7 7 8 7 7 7 6 6 6 6 6 6 6 7 8 8 8 9 9 9 8 8 8 8 7 7 8
3 4 4 3 2 3 4 5 4 5 7 6 6 6 4 0 2 2 3 3 3 4 5 5 4 1 1 1 1 3 4 4 5 5 6 7 10 11 13 15 16 18 18 18 19 18 18 17 15 14 13 12 12 11 9 8 7 5 4 2 2 3 4 4 5 6 6 6 6 6 6 6 7 7 6 6 6 6 6 6 6 6 6 7 7 8 8 8 7 8 8 8 8 8 7 8 8
5 5 5 5 4 4 5 6 5 4 6 6 6 7 4 1 1 2 2 1 2 4 4 5 5 3 1 1 1 2 3 4 5 6 6 7 9 12 13 14 16 17 18 18 18 18 18 17 16 15 14 13 12 11 10 9 7 5 4 3 3 4 4 5 6 6 6 5 5 4 4 5 6 6 6 5 5 6 6 5 6 6 6 8 8 8 7 6 6 7 8 8 8 8 8 8 9
Wind_Direction
315 309 309 311 299 272 249 244 255 231 253 257 252 255 233 250 280 284 303 357 293 45 0 314 3 347 2 8 34 55 45 36 40 29 64 99 133 116 114 115 120 126 128 116 126 142 136 139 145 144 142 140 139 137 138 139 140 141 139 137 136 135 134 133 128 126 124 120 117 115 112 108 107 100 91 84 80 81 87 91 95 101 104 105 107 108 107 105 102 101 103 105 105 102 100 101 98
313 307 305 301 264 256 246 215 262 245 244 255 245 251 221 226 256 311 352 338 337 43 29 0 64 49 22 17 24 45 48 47 61 75 93 129 129 109 106 104 110 116 116 107 116 135 136 140 145 148 141 137 137 136 138 139 139 138 137 137 134 133 131 128 124 123 121 116 111 109 104 101 102 95 88 81 76 78 81 91 97 101 107 109 109 111 111 109 105 104 108 111 111 108 106 106 104
313 310 288 264 234 242 251 213 255 257 250 255 242 225 210 246 275 12 1 354 57 71 51 43 87 37 354 31 35 35 57 50 63 87 102 119 118 101 91 86 102 112 115 116 114 121 133 140 147 153 142 137 138 136 137 138 139 136 135 134 131 130 128 126 123 120 117 112 106 100 98 103 107 99 90 83 78 80 81 88 94 96 105 111 113 115 113 111 109 108 112 111 110 109 104 99 102
316 306 275 254 228 225 236 230 250 263 253 253 241 189 198 281 354 19 17 69 87 83 30 349 107 32 1 37 45 63 72 55 58 76 94 69 78 93 84 93 110 110 108 112 108 110 127 139 145 154 143 139 139 137 138 138 138 136 134 132 130 128 126 123 119 117 114 109 103 95 100 111 111 98 89 83 80 80 81 87 93 96 101 110 115 116 114 113 112 110 109 103 102 104 98 92 94
299 269 269 257 248 237 243 247 253 253 250 260 244 177 143 337 1 7 88 95 108 40 13 298 67 73 60 36 14 58 61 71 61 58 92 71 65 85 87 103 111 110 103 105 114 109 115 137 145 154 146 142 141 138 138 138 139 136 134 132 130 126 123 120 116 116 111 106 103 99 106 110 100 89 85 82 79 77 79 85 96 100 102 108 112 113 113 112 111 106 101 97 99 101 99 97 94
262 236 235 247 269 318 254 244 240 242 251 286 270 221 62 338 334 320 130 123 148 345 352 322 27 95 100 59 46 50 27 34 60 48 73 73 70 86 95 104 104 109 109 115 127 118 116 133 149 160 148 145 140 136 137 138 136 132 132 130 127 125 122 119 116 114 109 107 104 102 107 104 95 90 87 82 77 75 77 85 98 104 105 108 109 110 110 108 105 99 96 96 100 100 100 103 102
257 233 206 224 221 229 250 249 249 245 160 250 280 316 339 316 321 267 208 192 188 187 315 48 151 121 106 105 78 60 47 52 65 59 67 77 78 86 103 103 95 100 112 123 132 127 125 134 170 165 137 132 125 124 134 133 126 123 124 122 121 121 119 117 114 112 111 108 104 103 103 100 97 92 88 83 79 75 76 88 102 107 109 110 110 111 110 109 104 100 101 100 101 99 101 107 116
251 248 212 235 224 209 247 250 252 256 121 141 279 311 311 307 299 262 235 227 209 165 159 112 178 189 107 111 81 73 70 71 73 69 74 82 77 87 95 92 95 103 114 122 127 124 124 134 175 155 118 114 112 114 124 121 120 118 113 115 116 115 115 115 113 112 111 107 105 108 107 103 98 93 90 86 81 76 74 86 104 109 110 112 112 111 111 111 107 105 100 91 88 90 103 123 137
224 236 217 239 241 219 240 245 242 253 238 241 262 291 306 302 282 255 234 224 204 169 153 116 217 217 117 99 89 83 77 83 81 73 80 87 85 91 83 84 102 111 115 119 120 119 120 130 157 136 118 122 123 122 118 112 117 115 105 107 113 111 112 114 114 112 108 106 107 108 110 106 100 98 94 88 84 80 75 80 99 113 115 114 115 114 110 111 112 103 87 75 69 76 101 130 140
205 221 234 231 244 233 231 235 231 229 230 249 262 301 311 301 274 237 222 208 188 170 111 97 226 142 118 104 97 80 74 89 82 74 79 85 91 91 86 89 100 106 109 114 116 115 118 129 138 115 118 125 126 121 115 111 113 112 105 103 108 111 113 114 112 110 105 107 108 107 109 107 104 103 98 94 88 84 79 77 87 108 122 120 116 115 111 114 114 99 85 71 70 80 96 118 126
209 199 246 238 233 236 234 220 217 214 199 228 215 343 317 295 249 203 200 185 181 166 106 156 142 110 119 101 93 76 68 75 75 76 76 76 85 84 89 95 102 111 108 108 110 111 116 119 109 100 111 118 114 107 107 109 109 102 100 106 109 111 114 111 106 102 99 102 105 107 111 111 108 106 102 99 93 86 82 77 78 91 112 122 119 116 117 123 118 105 92 78 78 79 84 100 109
230 184 214 237 233 232 244 235 218 206 198 221 198 83 338 245 203 181 182 172 170 150 93 68 108 136 134 104 96 83 69 71 78 79 76 71 77 79 90 103 110 113 107 105 106 104 102 94 88 98 106 108 103 100 101 103 104 98 100 110 111 109 109 106 104 100 97 99 103 108 111 111 111 109 106 104 100 93 86 81 78 81 92 109 120 123 127 131 130 120 103 86 87 86 85 89 91
240 203 214 230 243 238 239 244 217 219 208 196 141 86 314 210 179 164 164 154 160 148 82 51 91 153 118 107 104 89 76 80 87 84 84 78 74 83 95 104 106 105 101 101 103 100 94 88 87 97 94 94 97 100 101 100 101 103 106 108 106 104 102 102 105 103 100 100 102 105 105 106 108 107 107 106 104 100 94 88 82 81 83 91 110 129 139 143 144 137 118 96 94 96 91 87 83
242 225 241 226 215 244 237 239 193 211 184 105 103 122 158 158 109 125 160 154 122 91 73 43 29 91 111 122 109 88 84 87 95 95 94 91 88 96 98 99 101 99 98 97 97 98 101 102 98 95 90 87 90 93 94 95 98 101 102 100 100 100 99 100 101 101 99 98 98 97 98 100 102 103 107 107 106 104 100 96 91 89 86 86 94 119 149 159 156 147 134 113 104 103 94 86 79
246 212 249 242 197 219 221 233 186 200 127 99 134 150 144 111 113 135 93 112 88 60 91 54 17 2 85 94 105 95 93 91 103 104 98 99 97 99 97 96 97 96 96 93 94 98 105 107 99 96 94 89 86 87 90 92 94 95 96 97 97 97 97 96 95 96 96 97 96 95 95 96 97 100 107 107 105 107 104 103 100 97 95 92 91 97 128 162 171 163 150 136 124 117 103 91 77
243 221 230 233 205 205 193 192 186 185 114 110 149 154 142 110 90 104 51 44 95 69 60 53 27 41 60 74 107 105 104 104 110 111 106 103 98 96 95 94 95 94 95 97 103 110 112 107 101 99 95 92 88 87 90 90 88 89 93 93 92 93 96 98 96 95 95 98 98 97 93 90 92 90 94 98 100 107 112 114 109 105 103 101 98 93 97 127 174 178 169 157 145 135 120 103 87
212 228 225 216 206 199 172 170 158 126 116 127 144 149 143 113 92 82 86 78 94 77 61 59 47 57 72 92 109 106 112 117 110 106 107 106 101 99 96 95 97 95 94 99 106 113 113 105 99 93 89 91 89 84 81 83 82 80 81 82 83 87 92 95 94 92 92 92 93 92 88 89 93 86 85 92 93 100 113 125 124 119 117 114 112 108 97 95 146 179 179 171 162 151 133 116 103
212 217 219 210 196 171 142 130 90 112 140 140 138 130 114 115 104 101 120 98 95 90 75 75 72 74 86 98 109 106 106 109 104 105 112 114 110 106 104 106 106 100 93 90 93 98 98 94 88 82 81 80 77 78 76 74 76 77 75 75 78 83 90 93 92 90 87 85 84 84 85 89 94 91 91 95 99 104 114 129 135 137 137 138 136 134 131 117 128 171 183 180 177 168 148 141 130
229 218 222 214 168 106 78 52 55 29 98 126 129 119 105 96 97 125 148 109 114 106 88 91 89 88 94 101 113 109 102 104 110 121 126 124 119 116 117 116 109 96 88 86 86 86 85 86 84 79 78 76 73 77 77 70 70 79 79 79 80 79 83 86 89 87 81 78 79 79 81 86 93 96 100 105 109 112 112 125 136 146 145 154 167 169 173 173 181 193 189 188 188 186 187 196 178
226 223 228 191 137 103 81 350 9 24 3 147 138 118 98 77 75 148 144 113 111 89 84 96 97 99 103 109 112 105 105 116 121 124 119 119 118 114 116 114 102 91 91 94 89 83 83 88 88 83 80 79 78 78 75 70 67 72 78 80 80 77 74 75 79 80 77 76 77 78 76 80 89 92 97 103 103 106 107 105 117 134 144 169 184 184 194 199 207 211 200 192 192 198 210 219 210
192 222 244 101 125 153 95 7 351 34 194 161 141 124 95 76 64 63 132 133 100 74 70 82 100 110 112 119 115 104 105 114 118 117 114 116 113 107 109 105 98 99 104 101 94 87 86 92 92 86 79 72 73 76 73 75 74 68 70 73 75 73 67 65 67 71 70 69 73 79 80 77 81 83 89 99 104 114 127 133 130 141 159 184 190 187 195 207 211 202 198 197 196 206 214 219 226
193 218 298 46 347 200 75 40 10 60 151 147 141 125 99 89 66 50 53 90 81 74 83 89 98 107 113 123 120 111 110 111 111 111 111 110 108 109 111 106 104 110 108 102 100 96 95 101 95 83 77 70 65 68 67 72 75 71 66 62 65 64 59 60 62 64 64 66 74 79 82 82 81 82 85 98 108 110 123 139 146 160 172 182 197 195 189 198 204 197 198 203 204 212 213 214 223
222 187 140 40 351 24 59 47 51 97 141 136 127 108 107 102 80 62 60 72 84 85 89 95 97 100 109 117 117 114 116 118 109 106 105 104 108 111 109 105 102 103 100 102 105 104 100 97 92 77 70 70 64 61 64 67 69 73 68 59 59 59 59 60 61 62 61 66 75 78 78 86 92 86 79 89 106 114 124 134 142 156 180 183 197 209 195 198 202 202 203 205 211 216 215 216 217
248 144 132 75 41 51 57 66 82 104 111 109 114 108 108 99 88 79 75 81 94 97 95 100 107 109 107 109 116 119 119 120 110 104 105 108 113 110 108 105 99 102 104 105 103 102 93 83 83 76 66 69 71 69 79 80 76 76 69 65 62 61 62 61 61 62 61 61 67 76 81 85 92 90 81 79 91 161 152 166 185 180 201 196 203 217 211 208 206 207 208 211 215 217 220 222 222
238 117 128 110 84 93 83 96 102 103 104 107 110 93 82 90 93 85 84 94 99 102 104 103 112 117 112 110 120 124 120 118 114 111 110 113 115 108 111 112 108 110 109 106 103 99 88 78 81 84 83 84 86 87 88 87 85 81 78 77 74 70 71 69 68 64 63 63 59 65 70 71 78 82 79 83 103 263 276 263 245 229 220 210 215 223 223 222 218 214 213 219 218 220 225 223 228
168 118 133 135 115 110 105 114 109 102 104 112 108 95 89 99 98 83 83 101 107 111 112 111 114 114 116 116 123 127 119 117 118 118 114 113 114 112 113 114 115 114 108 105 100 95 88 86 92 97 100 98 96 96 93 90 87 81 77 77 77 75 73 68 67 62 59 62 56 55 54 55 56 64 71 125 205 241 261 271 271 262 248 232 223 223 222 225 228 227 224 232 229 228 232 228 232
129 126 121 120 116 116 120 120 112 105 95 100 109 101 107 120 141 88 96 110 120 120 116 121 119 114 121 119 123 128 121 122 124 121 119 115 114 118 121 121 119 115 109 103 99 97 97 103 105 102 102 101 100 100 98 96 93 88 81 76 73 69 66 60 59 55 50 48 44 41 36 33 18 355 320 261 242 239 245 260 270 270 264 253 242 236 230 228 233 235 233 240 244 243 243 238 236
132 131 114 116 124 117 120 119 118 118 88 73 101 112 120 126 71 82 107 127 136 129 126 133 127 121 128 124 125 129 126 129 131 128 123 120 123 129 131 129 125 117 109 104 104 106 111 111 106 101 100 100 101 99 96 92 88 85 78 75 71 67 62 56 52 50 47 40 39 35 17 354 315 289 274 261 255 250 245 248 256 261 264 260 255 252 248 244 241 240 239 239 243 247 246 243 241
140 144 124 125 134 118 115 126 133 145 89 50 121 167 135 105 93 104 126 145 144 142 141 143 137 133 134 131 131 130 129 131 133 130 124 127 134 134 132 131 128 119 112 110 111 114 115 112 106 104 104 103 102 100 94 86 81 78 74 71 66 62 56 51 49 44 40 32 31 29 11 348 312 286 274 266 265 264 257 249 247 247 249 257 257 258 261 257 251 248 245 242 242 243 243 242 240
149 158 149 144 147 129 120 144 144 136 88 30 275 208 121 91 111 130 157 159 157 157 147 146 148 147 137 135 137 127 126 127 124 122 124 134 135 134 133 132 131 123 119 118 117 119 116 113 111 111 113 110 106 103 98 90 83 75 68 64 55 50 44 41 38 28 24 11 6 4 355 330 309 292 280 272 269 270 267 259 254 250 243 248 255 259 263 263 263 261 257 254 251 249 250 247 244
149 147 172 174 162 137 128 146 154 143 109 25 290 244 117 116 129 141 168 165 172 167 148 154 157 155 137 134 144 129 125 124 118 118 126 132 131 134 135 134 132 125 123 121 119 119 115 115 116 114 113 110 107 103 96 88 80 70 59 51 41 37 29 23 16 4 356 347 339 335 331 310 297 289 278 272 269 269 269 266 263 258 250 252 259 258 261 266 267 267 268 267 263 259 257 255 254
153 166 173 195 183 148 150 164 166 155 140 161 284 264 114 132 140 152 171 163 179 179 158 159 157 163 150 141 147 132 128 127 121 121 126 131 133 138 139 135 131 125 125 122 120 116 112 114 113 109 107 104 102 96 88 80 74 68 61 52 43 38 28 18 10 358 344 338 328 319 321 309 296 289 280 272 269 268 265 266 264 260 256 257 260 258 263 265 264 265 266 269 272 270 267 262 258
185 213 153 175 202 160 164 179 182 177 157 179 254 253 118 136 149 157 170 171 181 183 164 159 163 177 172 162 153 138 139 133 128 130 133 139 141 142 141 134 131 130 126 123 122 118 113 112 107 104 102 100 95 89 84 78 74 69 62 58 53 50 42 28 14 6 353 341 330 319 318 310 300 297 291 280 273 270 268 266 261 257 254 255 258 260 262 262 263 265 264 264 269 273 275 272 265
190 224 157 167 168 168 179 173 181 197 203 200 230 233 149 138 153 161 174 182 188 195 180 171 182 189 186 187 165 150 152 142 136 141 141 141 141 140 138 135 136 133 127 125 125 119 115 109 104 104 101 101 99 95 92 85 80 77 72 69 62 62 53 38 23 16 9 0 351 335 325 314 306 303 301 294 282 276 272 268 262 255 250 253 257 259 261 262 263 263 264 264 264 271 277 279 277
189 183 193 165 154 194 198 146 166 195 218 237 226 223 163 143 157 166 176 181 188 203 195 187 192 189 183 188 174 156 160 155 144 147 141 127 124 118 115 137 140 134 129 127 123 117 113 108 104 103 100 101 99 98 97 89 83 76 77 84 67 61 53 39 27 20 16 13 6 351 340 328 317 312 306 301 293 284 277 269 264 257 252 254 258 262 263 263 264 264 266 267 266 270 273 277 283
202 179 207 184 168 196 167 93 129 203 230 235 234 244 180 160 168 171 177 177 187 199 199 206 200 190 183 181 178 168 172 165 152 156 149 134 132 125 127 189 153 132 130 125 123 119 116 113 108 104 101 101 95 87 83 76 75 67 66 73 62 57 51 43 35 26 18 13 7 357 351 342 332 324 313 305 299 292 282 274 268 260 254 253 257 265 268 268 271 272 273 275 276 275 273 275 284
182 186 197 192 202 173 130 107 116 212 246 232 243 276 254 239 203 173 176 181 196 202 204 212 204 201 193 182 183 180 180 167 157 164 160 151 147 140 152 196 169 137 134 130 129 124 119 118 114 111 104 96 89 79 71 61 54 46 42 38 43 48 39 41 43 30 19 12 5 359 354 349 343 336 326 315 302 296 287 274 265 256 250 251 253 260 272 280 285 285 281 279 275 276 278 279 291
182 197 190 175 216 158 126 150 136 163 246 210 221 263 240 248 250 186 184 198 207 205 212 216 203 203 200 193 191 183 180 167 162 169 169 166 162 154 160 180 175 152 145 140 134 128 126 125 120 119 112 101 95 88 79 64 52 42 36 31 31 44 41 37 37 28 19 15 9 7 1 353 350 345 340 328 306 301 297 282 270 261 256 258 258 262 280 293 294 291 285 278 271 273 279 280 293
193 180 243 192 152 129 129 160 141 160 237 218 232 260 244 239 258 218 204 214 211 199 214 221 207 202 198 198 194 183 180 172 170 175 176 176 172 166 167 176 177 162 151 145 139 137 134 130 128 125 122 114 103 94 84 74 65 61 61 52 44 57 54 42 34 27 20 19 18 17 8 358 357 351 348 343 321 312 313 304 294 283 278 277 271 274 293 302 298 290 282 278 275 272 271 269 276
207 157 277 279 140 169 168 165 177 194 243 293 276 261 255 225 240 236 227 230 220 202 211 215 213 211 200 200 196 185 183 178 179 179 177 179 176 172 174 177 176 167 159 152 147 146 141 139 138 130 126 120 108 99 84 75 73 70 75 78 70 72 64 47 39 30 22 21 21 19 11 2 5 2 356 356 342 327 326 325 323 320 316 313 304 299 301 301 295 288 281 278 276 273 268 261 255
198 225 273 14 158 206 211 136 166 198 226 263 268 253 235 208 227 232 222 226 225 218 220 217 213 209 198 202 204 194 189 185 183 181 178 181 179 177 179 179 177 173 166 159 154 151 147 145 142 131 123 117 108 99 81 69 65 57 61 79 75 72 61 41 32 27 21 18 17 15 11 8 11 10 6 7 359 344 336 331 328 326 321 316 310 302 298 296 291 286 285 281 275 274 273 271 260
159 230 292 344 170 181 135 154 181 213 207 206 238 256 221 178 216 231 211 218 222 217 226 229 215 201 198 201 202 195 190 190 189 185 181 181 181 181 180 179 179 175 166 158 153 151 151 148 140 130 120 113 107 96 80 67 65 56 53 60 55 55 51 37 27 21 13 10 9 8 9 12 16 15 15 15 8 357 347 336 327 320 314 309 305 298 294 293 290 287 287 286 282 278 278 278 269
143 150 241 211 185 172 168 191 205 246 164 155 221 264 300 184 209 218 223 235 228 215 224 232 218 200 198 199 201 196 190 191 192 190 186 183 184 182 179 180 180 172 162 155 152 153 154 147 139 132 122 115 111 101 86 73 70 64 61 63 55 47 42 36 30 17 6 4 6 8 9 13 19 21 20 18 13 6 358 347 336 323 313 307 301 298 296 295 295 293 292 294 292 287 283 280 277
71 118 202 208 203 191 189 210 225 283 6 171 214 250 289 273 199 177 220 245 242 232 228 225 219 203 192 196 201 197 193 190 187 188 190 188 185 181 178 179 177 167 159 156 156 158 156 149 142 136 128 121 117 110 94 81 75 72 68 65 60 49 37 33 31 18 7 6 9 12 14 18 25 25 18 15 16 14 8 359 349 340 333 326 314 302 298 300 300 300 300 299 296 291 289 285 283
86 133 219 214 220 226 219 229 238 274 284 238 203 217 265 280 145 143 204 245 252 247 234 222 219 203 185 194 201 195 194 191 185 186 188 186 184 182 179 176 170 163 162 162 160 160 158 151 143 137 135 125 118 115 101 86 79 77 69 57 53 41 32 26 23 16 7 9 14 13 14 22 29 25 17 16 18 18 15 7 0 354 352 346 337 329 320 314 310 309 309 306 301 296 291 289 290
97 144 204 200 229 242 237 249 257 252 264 270 208 199 254 297 282 152 190 244 267 256 229 215 217 205 186 190 196 194 193 189 185 186 185 183 182 181 176 170 165 162 164 165 161 161 160 152 146 142 140 128 120 119 105 87 77 71 60 50 43 31 27 21 17 15 9 10 14 11 10 19 27 24 18 19 19 17 13 9 5 3 1 355 351 352 350 344 338 330 327 325 322 317 309 302 304
133 167 183 180 204 225 231 249 264 255 249 276 269 219 253 291 285 166 128 328 327 312 239 154 207 211 198 193 191 189 191 189 186 184 181 177 175 173 171 168 165 163 164 164 161 165 164 154 149 145 141 135 127 119 104 88 75 69 59 46 35 27 23 15 10 8 8 10 11 7 6 13 22 22 17 19 17 12 6 4 3 2 3 0 359 1 1 359 349 342 349 352 342 340 348 345 328
204 219 209 199 202 204 227 221 223 253 251 85 56 249 256 267 259 309 348 335 298 286 296 42 200 215 210 205 199 188 185 188 188 182 174 169 168 169 170 169 166 164 164 164 164 169 167 157 148 144 144 142 129 114 106 94 82 73 58 41 30 23 13 7 3 1 4 7 8 8 6 8 15 15 15 16 12 7 2 358 359 359 1 3 3 3 0 352 352 8 21 16 5 7 16 18 5
237 251 237 239 239 222 238 234 228 257 277 85 82 235 252 268 272 304 331 335 320 309 305 309 291 239 220 213 212 201 187 185 184 178 169 167 168 170 171 170 168 167 167 167 169 171 166 156 147 145 147 143 128 115 109 103 93 76 52 35 23 16 7 359 353 355 2 5 8 11 9 8 10 9 12 11 5 2 357 354 356 356 356 359 3 9 11 8 15 27 30 23 20 19 20 26 21
229 254 256 257 263 263 263 263 261 268 54 85 100 260 264 269 284 335 5 17 13 348 316 308 290 253 237 222 215 210 196 185 179 173 170 171 171 171 173 173 169 169 169 169 170 171 166 155 146 149 150 142 130 120 115 113 106 82 52 30 14 7 4 358 352 356 6 11 12 14 13 12 11 9 7 2 356 355 353 352 352 353 354 357 6 18 29 39 44 45 43 42 45 39 34 42 37
241 283 281 270 271 283 286 290 294 302 339 81 167 241 276 296 12 337 312 313 293 281 280 285 261 223 219 222 211 199 193 188 182 178 178 178 175 173 174 175 171 168 168 170 170 171 166 154 147 154 153 141 132 129 125 120 112 89 54 24 11 7 6 4 355 1 16 23 21 18 16 13 9 5 358 352 351 351 352 350 350 357 359 359 16 28 33 43 54 58 55 54 57 56 52 54 53
232 276 266 268 291 292 294 331 330 319 307 280 204 240 286 308 312 296 286 281 260 246 244 235 213 189 189 199 200 192 190 190 189 190 187 181 177 175 175 174 171 167 167 169 172 173 166 151 146 156 153 142 138 138 133 124 115 90 53 30 29 39 32 14 14 31 39 37 29 23 20 14 6 360 351 350 354 354 354 356 359 7 5 7 30 35 37 51 61 63 61 56 51 48 46 46 47
196 233 251 42 13 302 285 285 67 270 275 272 233 265 275 270 267 232 270 283 190 155 184 180 156 171 183 188 189 191 192 192 194 196 192 184 179 177 177 175 170 166 168 171 173 173 163 147 146 157 156 148 145 141 136 130 119 91 57 45 55 66 63 41 47 53 48 42 38 33 27 19 10 3 356 354 358 358 0 8 13 14 16 30 38 41 55 67 65 62 61 51 35 24 26 30 29
266 254 357 67 52 275 277 273 249 251 269 270 255 278 288 274 221 152 199 241 100 113 133 130 145 174 188 185 181 181 181 184 190 191 190 185 182 180 179 177 173 168 169 171 170 168 159 147 149 162 164 158 152 145 140 133 121 95 63 54 69 77 75 67 65 61 54 52 51 43 35 26 16 7 0 358 0 1 7 17 20 20 28 40 43 50 67 73 71 69 62 44 24 15 20 23 19
291 313 355 278 267 246 233 266 276 276 283 283 266 270 276 264 253 48 33 91 39 13 38 149 176 180 191 183 169 167 167 173 182 185 185 184 185 184 180 178 174 170 170 169 167 165 158 150 154 168 170 163 156 150 145 138 126 102 75 65 82 87 84 80 76 73 71 68 57 44 34 27 19 10 3 0 2 6 17 24 23 25 36 44 45 51 65 78 83 76 56 31 20 20 25 26 24
215 244 228 249 287 284 269 278 287 284 284 285 282 271 260 255 3 6 345 25 2 340 338 317 294 180 199 184 162 164 165 173 180 182 183 182 186 186 181 179 175 171 170 167 166 168 161 153 159 171 172 166 160 156 151 143 132 110 94 94 108 107 101 93 88 89 89 76 59 43 31 25 20 11 3 4 10 18 30 33 32 35 40 45 52 65 79 81 74 58 37 25 22 23 29 33 34
239 245 242 235 247 272 279 273 262 271 279 283 286 278 270 92 77 330 325 3 350 335 331 321 324 326 254 160 152 164 164 177 182 181 184 179 183 185 181 180 178 173 172 169 168 170 163 159 167 174 174 172 167 162 155 145 136 120 110 118 134 135 126 112 109 109 99 79 60 43 31 27 20 12 6 9 20 33 40 41 46 48 50 60 70 77 76 63 44 32 27 30 30 31 38 41 41
290 285 284 275 263 261 265 258 240 244 264 274 279 279 280 105 106 306 323 358 337 336 333 319 321 331 329 148 175 177 172 184 183 181 182 175 178 182 179 180 181 178 177 173 171 172 167 166 174 178 179 178 171 164 157 147 141 130 123 135 149 150 142 132 131 127 110 87 67 50 37 31 21 14 13 19 35 49 50 51 61 63 71 81 76 64 52 36 28 33 37 39 39 40 46 46 45